TimeEST,TemperatureF,Dew PointF,Humidity,Sea Level PressureIn,VisibilityMPH,Wind Direction,Wind SpeedMPH,Gust SpeedMPH,PrecipitationIn,Events,Conditions,WindDirDegrees,DateUTC
12:15 AM,6.8,1.4,79,30.13,5.0,Calm,Calm,-,N/A,,Haze,0,2013-01-26 05:15:00
12:35 AM,6.8,1.4,79,30.13,4.0,Calm,Calm,-,N/A,,Haze,0,2013-01-26 05:35:00
12:55 AM,6.8,1.4,79,30.12,7.0,Calm,Calm,-,N/A,,Overcast,0,2013-01-26 05:55:00
1:15 AM,6.8,1.4,79,30.12,10.0,Calm,Calm,-,N/A,,Overcast,0,2013-01-26 06:15:00
1:35 AM,6.8,0.3,75,30.13,10.0,Calm,Calm,-,N/A,,Overcast,0,2013-01-26 06:35:00
1:55 AM,6.8,-0.6,72,30.12,10.0,Calm,Calm,-,N/A,,Overcast,0,2013-01-26 06:55:00
2:15 AM,4.8,-3.1,70,30.13,10.0,Calm,Calm,-,N/A,,Mostly Cloudy,0,2013-01-26 07:15:00
2:35 AM,4.5,-4.0,68,30.12,10.0,Calm,Calm,-,N/A,,Clear,0,2013-01-26 07:35:00
2:55 AM,4.5,-4.2,67,30.13,10.0,Calm,Calm,-,N/A,,Clear,0,2013-01-26 07:55:00
3:15 AM,4.5,-5.1,65,30.13,10.0,Calm,Calm,-,N/A,,Clear,0,2013-01-26 08:15:00
3:35 AM,2.7,-6.0,67,30.12,10.0,Calm,Calm,-,N/A,,Clear,0,2013-01-26 08:35:00
3:55 AM,1.9,-6.7,67,30.12,10.0,Calm,Calm,-,N/A,,Clear,0,2013-01-26 08:55:00
4:15 AM,1.2,-6.7,69,30.13,10.0,Calm,Calm,-,N/A,,Clear,0,2013-01-26 09:15:00
4:35 AM,0.9,-6.3,72,30.13,10.0,Calm,Calm,-,N/A,,Clear,0,2013-01-26 09:35:00
4:55 AM,0.5,-6.3,73,30.13,10.0,Calm,Calm,-,N/A,,Clear,0,2013-01-26 09:55:00
5:15 AM,-0.0,-6.7,73,30.13,10.0,Calm,Calm,-,N/A,,Clear,0,2013-01-26 10:15:00
5:35 AM,-0.4,-6.7,75,30.14,10.0,Calm,Calm,-,N/A,,Clear,0,2013-01-26 10:35:00
5:55 AM,-1.1,-7.1,76,30.15,10.0,Calm,Calm,-,N/A,,Clear,0,2013-01-26 10:55:00
6:15 AM,-1.7,-7.1,78,30.15,10.0,Calm,Calm,-,N/A,,Clear,0,2013-01-26 11:15:00
6:35 AM,-1.7,-7.2,77,30.15,10.0,Calm,Calm,-,N/A,,Clear,0,2013-01-26 11:35:00
6:55 AM,-1.8,-7.1,78,30.16,10.0,Calm,Calm,-,N/A,,Clear,0,2013-01-26 11:55:00
7:15 AM,-1.8,-6.9,79,30.17,10.0,Calm,Calm,-,N/A,,Clear,0,2013-01-26 12:15:00
7:35 AM,-2.2,-7.1,80,30.17,10.0,Calm,Calm,-,N/A,,Clear,0,2013-01-26 12:35:00
7:55 AM,-1.8,-6.7,80,30.18,10.0,Calm,Calm,-,N/A,,Clear,0,2013-01-26 12:55:00
8:15 AM,-0.6,-6.0,78,30.18,10.0,Calm,Calm,-,N/A,,Clear,0,2013-01-26 13:15:00
8:35 AM,0.5,-5.6,75,30.19,10.0,Calm,Calm,-,N/A,,Clear,0,2013-01-26 13:35:00
8:55 AM,1.2,-5.8,72,30.20,10.0,Calm,Calm,-,N/A,,Clear,0,2013-01-26 13:55:00
9:15 AM,1.9,-5.4,71,30.20,10.0,Calm,Calm,-,N/A,,Clear,0,2013-01-26 14:15:00
9:35 AM,4.5,-4.0,68,30.20,10.0,North,4.6,-,N/A,,Clear,360,2013-01-26 14:35:00
9:55 AM,4.5,-5.1,65,30.20,10.0,Calm,Calm,-,N/A,,Clear,0,2013-01-26 14:55:00
10:15 AM,6.3,-3.8,63,30.20,10.0,North,4.6,-,N/A,,Clear,350,2013-01-26 15:15:00
10:35 AM,6.8,-4.9,59,30.21,10.0,NNW,3.5,-,N/A,,Clear,330,2013-01-26 15:35:00
10:55 AM,6.8,-4.7,59,30.21,10.0,North,5.8,-,N/A,,Clear,350,2013-01-26 15:55:00
11:15 AM,6.8,-4.9,59,30.20,10.0,West,3.5,-,N/A,,Clear,280,2013-01-26 16:15:00
11:35 AM,8.2,-3.8,58,30.20,10.0,WNW,4.6,-,N/A,,Clear,290,2013-01-26 16:35:00
11:55 AM,8.1,-4.2,58,30.20,10.0,North,4.6,-,N/A,,Clear,360,2013-01-26 16:55:00
12:15 PM,9.5,-3.6,55,30.20,10.0,NNW,5.8,-,N/A,,Clear,340,2013-01-26 17:15:00
12:35 PM,10.2,-3.8,53,30.19,10.0,Calm,Calm,-,N/A,,Clear,0,2013-01-26 17:35:00
12:55 PM,12.0,-3.5,50,30.19,10.0,NNW,4.6,-,N/A,,Scattered Clouds,340,2013-01-26 17:55:00
1:15 PM,12.0,-4.2,48,30.19,10.0,NW,5.8,-,N/A,,Clear,310,2013-01-26 18:15:00
1:35 PM,11.7,-4.7,48,30.19,10.0,WNW,4.6,-,N/A,,Clear,300,2013-01-26 18:35:00
1:55 PM,11.8,-5.6,46,30.19,10.0,North,4.6,-,N/A,,Clear,350,2013-01-26 18:55:00
2:15 PM,12.0,-6.2,44,30.20,10.0,WNW,3.5,-,N/A,,Scattered Clouds,290,2013-01-26 19:15:00
2:35 PM,12.0,-6.0,44,30.20,10.0,WNW,3.5,-,N/A,,Mostly Cloudy,290,2013-01-26 19:35:00
2:55 PM,12.0,-6.5,43,30.21,10.0,NW,4.6,-,N/A,,Overcast,320,2013-01-26 19:55:00
3:15 PM,12.0,-5.1,46,30.21,10.0,West,6.9,-,N/A,,Overcast,280,2013-01-26 20:15:00
3:35 PM,12.0,-5.1,46,30.21,10.0,WNW,5.8,-,N/A,,Overcast,300,2013-01-26 20:35:00
3:55 PM,12.0,-3.1,51,30.21,10.0,West,4.6,-,N/A,,Mostly Cloudy,280,2013-01-26 20:55:00
4:15 PM,12.0,-1.8,54,30.22,10.0,West,5.8,-,N/A,,Mostly Cloudy,280,2013-01-26 21:15:00
4:35 PM,12.0,0.5,60,30.22,7.0,West,3.5,-,N/A,,Overcast,270,2013-01-26 21:35:00
4:55 PM,11.7,2.1,66,30.22,10.0,West,4.6,-,N/A,,Overcast,280,2013-01-26 21:55:00
5:15 PM,11.7,1.9,65,30.23,10.0,West,5.8,-,N/A,,Overcast,260,2013-01-26 22:15:00
5:35 PM,11.7,1.2,63,30.22,10.0,West,4.6,-,N/A,,Overcast,270,2013-01-26 22:35:00
5:55 PM,10.9,1.0,64,30.23,10.0,WNW,4.6,-,N/A,,Overcast,290,2013-01-26 22:55:00
6:15 PM,10.4,0.7,65,30.24,10.0,West,5.8,-,N/A,,Overcast,280,2013-01-26 23:15:00
6:35 PM,9.5,0.5,67,30.24,10.0,WNW,5.8,-,N/A,,Overcast,290,2013-01-26 23:35:00
6:55 PM,9.5,0.5,67,30.25,10.0,WNW,4.6,-,N/A,,Mostly Cloudy,300,2013-01-26 23:55:00
7:15 PM,9.5,1.0,69,30.25,10.0,West,4.6,-,N/A,,Mostly Cloudy,280,2013-01-27 00:15:00
7:35 PM,9.7,1.2,69,30.25,10.0,West,5.8,-,N/A,,Overcast,280,2013-01-27 00:35:00
7:55 PM,9.5,0.9,68,30.25,10.0,West,6.9,-,N/A,,Overcast,270,2013-01-27 00:55:00
8:15 PM,9.5,0.9,68,30.25,10.0,WNW,3.5,-,N/A,,Scattered Clouds,290,2013-01-27 01:15:00
8:35 PM,9.5,0.9,68,30.26,10.0,West,4.6,-,N/A,,Clear,280,2013-01-27 01:35:00
8:55 PM,9.5,0.9,68,30.26,10.0,West,4.6,-,N/A,,Clear,280,2013-01-27 01:55:00
9:15 PM,9.3,0.9,69,30.27,10.0,West,3.5,-,N/A,,Clear,270,2013-01-27 02:15:00
9:35 PM,9.5,1.0,69,30.27,10.0,West,3.5,-,N/A,,Clear,280,2013-01-27 02:35:00
9:55 PM,9.5,0.5,67,30.28,10.0,WNW,3.5,-,N/A,,Scattered Clouds,290,2013-01-27 02:55:00
10:15 PM,9.5,0.5,67,30.28,10.0,WNW,4.6,-,N/A,,Clear,300,2013-01-27 03:15:00
10:35 PM,9.5,0.5,67,30.29,10.0,Calm,Calm,-,N/A,,Clear,0,2013-01-27 03:35:00
10:55 PM,9.5,1.0,69,30.29,10.0,West,5.8,-,N/A,,Clear,280,2013-01-27 03:55:00
11:15 PM,9.5,1.4,70,30.30,10.0,WNW,5.8,-,N/A,,Clear,300,2013-01-27 04:15:00
11:35 PM,9.5,1.4,70,30.30,10.0,WNW,3.5,-,N/A,,Clear,300,2013-01-27 04:35:00
11:55 PM,9.5,1.4,70,30.30,10.0,NW,5.8,-,N/A,,Clear,310,2013-01-27 04:55:00